This is the latest recevied weather packets stored in our database for station/object CQ0XSM-11. If no packets are shown the sender has not sent any weather packets the latest 10 day(s).
| Time | Temp. | Humidity | Pressure | Rain* | Wind** | Luminosity | Snow |
|---|---|---|---|---|---|---|---|
| 1777809318 | 15.56° C | 58% | 994.6 hPa | 0 mm | - | - | - |
| 1777808984 | 15.56° C | 62% | 994.6 hPa | 0 mm | - | - | - |
| 1777808696 | 15.56° C | 63% | 994.7 hPa | 0 mm | - | - | - |
| 1777808388 | 15° C | 67% | 994.7 hPa | 0 mm | - | - | - |
| 1777808085 | 15° C | 69% | 994.8 hPa | 0 mm | - | - | - |
| 1777807771 | 15° C | 64% | 994.8 hPa | 0 mm | - | - | - |
| 1777807165 | 15.56° C | 66% | 994.8 hPa | 0 mm | - | - | - |
| 1777806891 | 15° C | 68% | 995 hPa | 0 mm | - | - | - |
| 1777806568 | 15° C | 68% | 995 hPa | 0 mm | - | - | - |
| 1777806269 | 15° C | 69% | 995 hPa | 0 mm | - | - | - |
| 1777805978 | 15° C | 66% | 995 hPa | 0 mm | - | - | - |
| 1777805666 | 15° C | 71% | 995.2 hPa | 0 mm | - | - | - |
| 1777805356 | 13.89° C | 75% | 995.2 hPa | 0 mm | - | - | - |
| 1777805047 | 13.89° C | 70% | 995.3 hPa | 0 mm | - | - | - |
| 1777804732 | 13.89° C | 73% | 995.4 hPa | 0 mm | - | - | - |
| 1777804446 | 14.44° C | 79% | 995.4 hPa | 0 mm | - | - | - |
| 1777804133 | 14.44° C | 81% | 995.3 hPa | 0 mm | - | - | - |
| 1777803877 | 14.44° C | 81% | 995.3 hPa | 0 mm | - | - | - |
| 1777803243 | 13.89° C | 89% | 995.4 hPa | 0 mm | - | - | - |
| 1777802934 | 13.33° C | 87% | 995.4 hPa | 0 mm | - | - | - |
| 1777802636 | 13.33° C | 99% | 995.4 hPa | 0 mm | - | - | - |
| 1777802044 | 12.78° C | 100% | 995.5 hPa | 0 mm | - | - | - |
| 1777801707 | 12.22° C | 100% | 995.6 hPa | 0 mm | - | - | - |
| 1777801434 | 12.22° C | 100% | 995.6 hPa | 0 mm | - | - | - |
| 1777800808 | 12.78° C | 100% | 995.4 hPa | 0 mm | - | - | - |
* Rain since midnight (hover to see other rain measurements)
** Current wind speed in m/s (hover to see current wind gust speed)